SCP
1 0 0 0 0 0 0 0 0 0 0 0 0 0 0 1 1 1 1 1 1 2 2 2 1 1 1 1 1 1 1 1 1 1 1 1 1 1 1 2 2 2 2 2 1 1 1 1 1
0 0 0 0 0 0 0 0 0 0 0 0 0 1 1 1 1 1 1 2 2 2 2 2 1 1 1 1 1 1 1 1 1 1 2 2 1 1 1 2 2 2 2 2 1 1 1 1 1
0 0 0 0 0 0 0 0 0 0 0 0 0 1 1 1 1 1 2 2 2 2 2 1 1 1 1 1 1 1 1 1 1 1 2 2 1 1 1 2 2 2 2 2 2 1 1 1 1
0 0 0 0 0 0 0 0 0 0 0 0 0 1 1 0 0 1 2 2 2 2 1 1 1 1 1 1 1 1 1 1 1 1 1 1 1 1 1 2 2 2 2 2 2 1 1 1 1
0 0 0 0 0 0 0 0 0 0 0 0 1 1 1 0 0 1 1 1 1 1 1 1 1 1 1 1 1 1 1 1 1 1 1 1 1 1 1 1 2 2 2 2 2 1 1 1 2
0 0 0 0 0 0 0 0 0 0 0 1 1 1 1 1 1 1 1 1 1 1 1 1 1 1 1 1 1 1 1 1 1 1 1 1 1 1 1 1 1 2 2 2 2 1 1 1 2
0 0 0 0 0 0 0 0 0 0 0 0 1 1 1 1 1 1 1 1 1 1 1 1 1 1 1 1 1 1 1 1 1 1 1 1 1 1 1 1 1 2 2 2 2 1 1 1 2
0 0 0 0 0 0 0 0 0 0 0 0 0 1 1 1 1 2 2 2 1 1 1 1 1 1 1 1 1 1 1 1 1 1 1 1 1 1 1 1 1 2 2 2 2 1 1 1 1
0 0 0 0 0 0 0 0 0 0 0 0 0 0 1 1 2 2 2 2 2 1 1 1 1 1 1 0 1 1 1 1 1 1 1 1 1 1 1 1 1 1 2 2 2 1 1 1 1
0 0 0 0 0 0 0 0 0 0 0 0 0 0 1 1 2 2 2 2 2 1 1 1 1 1 0 0 0 0 0 1 1 0 0 0 1 1 1 1 1 1 1 2 2 1 1 1 1
0 0 0 0 0 0 0 0 0 0 0 0 0 0 1 1 2 2 2 2 2 1 1 1 1 1 0 0 0 0 0 0 0 0 0 0 0 1 1 1 0 1 1 1 1 1 0 1 1
0 0 0 0 0 0 0 0 0 0 0 0 0 0 0 0 1 2 2 2 2 2 2 1 1 1 0 0 0 0 0 0 0 0 0 0 0 0 1 0 0 0 1 1 1 1 0 0 1
0 0 0 0 0 0 0 0 0 0 0 0 0 0 0 0 0 1 2 2 2 2 2 2 1 0 0 0 0 0 0 0 0 0 0 0 0 0 0 1 0 0 1 1 1 1 0 1 1
0 0 0 0 0 0 0 0 0 0 0 0 0 0 0 0 0 1 1 2 2 2 2 2 1 0 0 0 0 0 0 0 0 0 0 0 0 0 0 0 0 0 0 1 1 1 1 1 1
0 0 0 0 0 0 0 0 0 0 0 0 0 0 0 0 0 0 1 1 1 2 2 2 1 0 0 0 0 0 0 0 0 0 0 0 0 0 0 0 0 0 0 0 0 1 0 0 0
0 0 0 0 0 0 0 0 0 0 0 0 0 0 0 0 0 0 1 1 2 2 2 2 1 1 0 0 0 0 0 0 0 0 0 0 0 0 0 0 0 0 0 0 0 0 0 0 0
0 0 0 0 0 0 0 0 0 0 0 0 0 0 0 0 0 0 0 1 2 2 2 2 1 1 0 0 0 0 0 0 0 0 0 0 0 0 0 0 0 0 0 0 0 0 0 0 0
0 0 0 0 0 0 0 0 0 0 0 0 0 0 0 0 0 0 0 1 2 2 2 2 1 1 0 0 0 0 0 0 0 0 0 0 0 0 0 0 0 0 0 0 0 0 0 0 0
0 0 0 0 0 0 0 0 0 0 0 0 0 0 0 0 0 0 0 1 2 3 2 2 1 1 0 0 0 0 0 0 0 0 0 0 0 0 0 0 0 0 0 0 0 0 0 0 0
0 0 0 0 0 0 0 0 0 0 0 0 0 0 0 0 0 0 0 2 2 3 2 2 1 1 0 0 0 0 0 0 0 0 0 0 0 0 0 0 0 0 0 0 0 0 0 0 0
0 0 0 0 0 0 0 0 0 0 0 0 0 0 0 0 0 0 1 2 2 3 2 2 1 1 0 0 0 0 0 0 0 0 0 0 0 1 1 1 0 0 0 0 0 0 0 0 0
0 0 0 0 0 0 0 0 0 0 0 0 0 0 0 0 0 0 1 2 3 3 2 2 1 1 0 0 0 0 0 0 0 0 0 0 1 1 1 1 1 1 0 0 0 0 0 0 0
0 0 0 0 0 0 0 0 0 0 0 0 0 0 0 0 0 0 1 2 3 3 3 2 2 1 0 0 0 0 0 0 0 0 0 0 0 1 1 1 1 1 0 0 0 0 0 0 0
0 0 0 0 0 0 0 0 0 0 0 0 0 0 0 0 0 1 2 3 3 3 2 2 2 1 0 0 0 0 0 0 0 0 0 0 0 0 1 1 1 1 1 0 0 0 0 0 0
0 0 0 0 0 0 0 0 0 0 0 0 0 0 0 0 1 2 3 3 3 2 2 2 1 1 0 0 0 0 0 0 0 0 0 0 0 0 0 0 0 0 1 0 0 0 0 0 0
0 0 0 0 0 0 0 0 0 0 0 0 1 1 1 1 2 3 3 3 2 2 2 1 1 1 0 0 0 0 0 0 0 0 0 0 0 0 0 0 0 0 0 0 0 0 0 0 0
0 0 0 0 0 0 0 0 0 1 1 1 1 1 1 1 2 2 1 1 1 1 1 1 1 1 0 0 0 0 0 0 0 0 0 0 0 0 0 0 0 0 0 0 0 0 0 0 0
0 0 0 0 0 0 0 0 1 1 1 2 1 1 1 0 0 0 0 0 0 0 1 1 1 1 0 0 0 0 0 0 0 0 0 0 0 0 0 0 0 0 0 0 0 0 0 0 0
0 0 0 0 0 0 0 0 0 1 1 1 1 0 0 0 0 0 0 0 0 0 0 0 0 0 0 0 0 0 0 0 0 0 0 0 0 0 0 0 0 0 0 0 0 0 0 0 0
0 0 0 0 0 0 0 0 0 0 0 0 0 0 0 0 0 0 0 0 0 0 0 0 0 0 0 0 0 0 0 0 0 0 0 0 0 0 0 0 0 0 0 0 0 0 0 0 0
Wind_Speed
8 4 2 4 7 5 2 3 2 1 1 0 1 3 5 3 3 2 0 1 2 1 1 1 4 5 5 5 6 6 6 6 5 5 5 5 6 6 6 5 5 5 5 6 7 6 6 7 7
3 2 5 6 5 1 4 3 3 2 1 1 2 3 3 1 1 2 0 1 2 2 2 2 4 5 5 5 5 5 5 6 6 5 4 5 5 5 5 5 5 5 5 5 5 6 6 6 6
2 4 5 5 4 5 4 3 3 0 1 2 2 2 2 1 0 1 1 1 2 2 2 2 4 4 5 5 5 4 5 5 5 5 4 4 4 4 5 5 5 5 5 5 5 5 4 5 5
3 5 5 4 3 4 3 2 1 1 1 2 2 2 0 1 0 1 1 3 3 2 2 1 4 4 5 5 4 4 4 4 5 5 4 3 3 3 4 4 4 4 5 5 4 4 3 4 4
4 5 4 1 3 3 2 1 1 1 0 1 2 2 0 2 2 2 3 3 3 2 1 2 4 4 4 5 4 4 4 4 4 4 4 3 3 2 3 3 3 4 4 4 4 3 3 3 3
5 4 4 3 4 2 1 1 2 1 1 1 2 3 1 1 2 2 2 2 2 2 1 2 3 4 4 5 5 5 4 4 4 4 4 4 3 3 3 3 3 3 3 3 4 3 3 3 3
4 4 3 3 2 2 2 0 3 2 1 2 3 3 1 0 1 1 2 2 2 2 2 2 2 2 3 4 5 4 5 4 4 4 5 5 4 3 3 2 2 3 3 3 3 3 3 2 3
4 5 2 2 3 3 1 1 1 2 2 0 3 4 3 2 1 2 3 2 2 2 2 2 2 2 2 2 4 4 4 5 4 4 5 6 5 4 4 4 3 2 3 3 3 3 3 2 2
3 4 3 4 5 3 0 1 2 1 1 1 0 1 1 3 3 3 2 2 2 2 2 2 2 2 2 2 3 3 4 4 4 3 4 4 2 2 2 4 4 3 3 3 3 3 4 3 2
4 3 4 2 2 2 1 1 1 1 1 1 1 2 2 3 3 3 2 1 1 2 2 1 1 1 1 2 2 2 2 2 2 1 2 1 1 2 3 4 4 3 4 3 3 3 4 2 1
2 3 2 0 0 0 0 1 1 2 2 4 4 2 1 2 2 2 3 3 3 2 2 1 1 1 1 1 1 1 1 1 1 2 1 1 1 1 2 1 2 2 3 2 2 2 2 1 0
2 0 0 1 1 0 1 1 1 3 5 3 3 2 2 3 3 4 4 3 2 2 2 2 1 1 1 0 1 0 1 1 1 1 1 1 1 1 1 1 1 1 1 1 1 1 2 1 1
1 1 1 1 1 0 0 2 2 4 5 2 1 1 3 4 4 4 3 3 2 2 3 2 1 1 1 1 1 1 1 1 1 1 1 1 1 1 1 1 1 1 1 0 1 1 1 1 1
0 0 2 2 1 1 1 3 2 6 2 1 1 3 4 4 5 3 3 3 3 3 3 2 1 1 1 1 1 1 1 1 1 1 1 1 1 1 1 1 1 1 1 0 0 1 1 1 1
1 2 3 2 1 1 1 5 5 5 1 2 3 4 4 4 4 5 5 4 4 4 3 2 1 1 1 1 1 1 1 1 1 1 2 2 2 1 1 1 1 1 1 0 0 1 0 1 1
2 2 3 3 1 1 1 7 5 1 2 3 4 4 4 5 5 5 5 4 3 3 3 3 2 1 1 2 1 1 1 1 1 1 1 2 2 1 1 1 1 1 1 0 0 0 0 1 1
3 1 3 5 1 0 2 7 6 1 2 4 5 5 5 5 5 5 4 4 4 3 3 3 2 2 2 2 1 1 1 1 2 1 2 2 2 1 1 1 1 1 1 0 1 0 0 1 1
3 3 3 5 2 1 4 8 8 4 4 5 5 5 5 6 7 5 4 3 3 3 3 3 2 2 1 0 0 0 1 1 1 1 2 3 2 1 1 1 1 1 1 1 1 0 0 0 1
3 3 5 6 3 2 7 10 10 6 4 5 6 5 6 7 6 4 4 3 2 2 2 2 2 1 1 0 0 1 1 2 1 2 2 2 2 1 1 1 1 1 1 1 1 1 0 0 1
4 4 5 5 3 3 6 10 9 6 6 6 7 7 6 5 4 4 3 2 3 3 3 3 3 2 2 2 1 1 1 1 2 1 1 2 2 1 1 2 2 1 1 1 1 1 1 0 1
5 5 5 4 4 2 4 8 5 4 3 4 5 5 5 5 5 4 3 3 3 3 3 3 3 2 3 2 1 1 1 1 1 1 1 2 2 2 2 2 2 2 1 1 2 2 2 1 1
6 4 4 3 2 4 0 6 7 4 5 5 5 4 4 4 4 4 3 3 3 4 3 3 2 2 2 2 2 2 1 1 2 2 2 2 2 2 2 2 2 2 1 2 2 2 2 2 1
4 2 2 2 2 3 1 3 9 2 5 6 5 5 4 4 4 4 4 4 3 3 2 2 2 2 1 2 2 2 2 2 1 1 2 2 2 2 2 2 2 2 1 2 2 1 2 2 2
1 1 2 2 1 4 4 4 9 4 6 5 4 4 4 3 3 3 2 2 2 2 1 1 1 2 2 2 2 3 3 2 2 2 2 2 2 2 2 2 2 2 2 2 2 2 2 2 3
2 3 3 4 2 6 2 4 11 6 5 5 5 4 3 3 2 2 2 2 2 2 2 1 1 2 2 2 2 3 3 3 4 3 3 3 2 2 3 2 2 2 2 2 2 2 3 3 3
2 4 4 4 5 5 2 7 9 4 3 3 3 2 2 2 2 2 2 2 2 2 2 2 2 2 2 2 3 3 3 2 3 3 3 3 3 3 3 2 2 3 2 3 2 2 3 2 3
3 3 2 3 1 4 6 7 9 2 2 2 2 2 3 3 3 3 3 2 2 2 2 2 2 2 3 3 3 3 3 3 3 4 3 3 3 3 3 3 3 3 3 3 2 2 2 3 3
2 5 3 3 2 5 6 5 5 3 3 3 3 3 4 4 3 3 3 3 3 2 2 2 2 3 3 3 3 3 3 3 4 3 4 4 4 3 3 3 3 3 3 3 2 3 3 3 3
3 3 3 2 3 3 4 8 6 5 3 3 4 3 3 4 4 3 3 3 3 3 2 2 2 3 3 3 3 3 3 3 3 3 4 4 4 3 3 4 3 3 3 3 3 3 3 3 3
4 5 6 4 4 3 3 10 3 3 2 2 3 4 3 3 3 3 3 3 3 3 3 3 3 3 3 3 2 3 3 2 3 3 4 3 3 3 3 3 3 3 3 3 3 3 3 3 3
Wind_Direction
350 357 45 54 57 55 222 234 207 211 240 303 77 113 129 137 160 182 222 65 77 97 55 85 71 65 61 58 54 49 49 44 42 50 53 57 56 50 49 50 52 52 50 47 47 52 60 63 62
351 10 50 60 93 152 251 227 207 208 192 101 64 78 87 91 57 98 61 346 84 84 53 45 71 66 65 58 54 48 45 43 37 38 49 53 55 52 50 48 47 46 47 48 47 46 57 58 57
14 45 77 80 128 189 214 206 210 281 55 88 80 54 107 146 35 171 224 143 87 70 46 36 66 65 62 56 49 44 39 38 35 31 37 45 51 52 50 48 44 41 39 39 44 43 53 56 51
55 46 57 83 200 219 214 218 182 115 39 52 113 82 21 4 233 209 144 121 101 75 48 38 62 59 56 49 41 37 34 36 35 29 31 36 38 40 50 46 40 37 34 32 34 35 40 54 48
55 76 76 86 230 238 244 251 158 140 169 39 125 136 234 353 34 90 107 119 121 102 57 45 61 53 47 38 31 27 32 31 30 25 27 34 33 34 48 42 33 31 33 31 26 21 24 38 46
56 71 109 210 230 251 267 241 139 148 184 103 128 140 220 16 71 98 109 114 117 110 71 51 59 50 41 33 29 23 18 23 26 24 25 26 35 42 40 34 26 27 32 24 17 10 10 26 39
100 106 166 190 203 247 243 146 147 157 196 216 160 147 239 282 145 109 96 92 83 84 72 38 41 40 33 23 19 17 17 15 13 21 24 19 27 32 22 6 14 20 20 14 10 4 354 17 33
116 107 134 194 195 232 279 67 131 156 213 186 143 161 217 223 142 91 69 58 46 44 46 33 32 35 26 10 11 13 15 14 15 19 22 21 19 23 18 4 359 6 10 4 359 354 351 4 26
84 87 194 208 197 218 150 74 343 3 109 22 199 204 245 131 116 95 65 36 22 18 15 13 22 26 26 15 12 12 10 11 15 15 20 18 358 359 10 359 356 356 357 355 352 349 352 9 19
84 153 213 211 191 190 215 190 246 40 16 315 323 340 35 115 131 139 159 188 269 298 309 355 348 343 18 18 18 6 7 4 2 5 15 8 355 351 15 2 3 357 359 348 346 347 354 13 7
103 178 205 252 278 173 209 265 251 152 243 227 220 222 162 133 154 178 204 208 225 244 276 291 290 299 359 6 354 353 353 357 358 5 5 2 357 350 11 6 352 346 357 350 346 342 340 355 8
101 265 208 283 350 33 256 244 267 205 231 239 212 186 182 182 205 207 214 229 243 258 267 275 262 260 270 296 309 311 329 338 337 335 343 4 345 332 342 1 349 354 338 340 352 338 336 332 328
108 272 319 341 360 337 299 252 242 252 257 270 207 162 194 208 225 229 225 228 239 249 264 267 252 241 241 242 273 310 285 286 286 300 305 297 288 279 294 329 343 333 315 300 327 335 336 316 314
238 328 305 307 303 315 270 278 240 262 265 251 202 210 217 222 229 245 242 241 237 244 257 260 244 238 242 240 241 260 269 275 276 269 271 270 268 253 263 296 304 307 309 293 260 277 296 287 284
40 8 334 306 285 280 16 297 241 253 231 252 247 240 244 245 245 245 239 236 237 240 252 256 240 236 250 259 246 256 259 264 270 269 269 273 271 255 247 266 289 295 298 318 2 327 328 320 328
40 36 316 295 296 311 122 270 272 280 201 254 261 259 256 256 250 253 250 241 242 238 248 257 254 235 241 244 242 239 242 240 256 266 268 267 264 248 235 260 283 288 291 327 47 319 348 333 330
32 324 268 292 275 53 188 260 280 302 224 255 266 266 262 269 269 264 257 242 238 230 234 249 246 233 240 242 243 240 236 230 247 259 265 266 254 232 217 253 279 285 283 298 284 7 45 307 322
239 244 259 263 274 231 245 260 279 279 240 251 264 267 264 262 263 264 260 246 239 236 229 234 251 240 233 207 60 288 274 254 247 246 260 266 254 235 212 254 278 286 274 282 250 227 346 270 291
200 219 260 262 264 259 251 267 277 272 257 259 266 265 265 264 267 263 256 243 238 250 246 243 253 225 178 154 179 275 282 280 269 259 258 254 255 247 229 257 261 257 245 254 236 196 131 13 358
230 252 265 285 280 258 273 275 272 251 243 240 246 254 260 274 290 287 274 254 238 238 244 242 240 225 206 207 206 226 243 263 256 263 264 259 255 245 242 236 245 242 238 259 231 194 159 261 346
239 230 243 269 315 303 307 291 273 266 258 258 251 252 258 258 266 280 270 259 263 257 248 248 241 229 217 205 163 50 31 348 333 322 298 292 284 268 253 243 241 238 219 228 237 213 183 206 300
253 234 231 254 292 290 339 288 280 270 285 269 267 268 265 269 266 274 267 264 256 256 254 248 237 225 219 184 181 183 219 248 252 264 273 293 284 277 266 258 248 239 229 230 238 226 213 194 221
239 268 221 226 214 283 246 251 283 295 279 273 263 261 265 265 259 272 268 259 262 258 252 249 246 237 223 199 203 205 240 254 274 279 285 290 293 283 272 263 254 244 241 234 233 231 223 209 207
211 35 63 59 84 270 228 205 277 242 238 270 276 277 278 275 274 277 283 290 295 292 279 258 241 248 229 217 219 217 230 249 265 277 269 277 285 284 272 262 251 247 241 234 231 228 227 225 219
86 81 18 348 332 254 213 214 252 247 237 242 265 281 285 281 277 287 301 304 305 310 301 270 233 251 241 228 232 233 234 232 238 248 248 257 266 271 265 265 256 253 247 239 232 230 233 230 223
202 154 164 222 246 284 274 239 255 257 261 269 272 282 303 307 293 292 290 288 289 290 289 276 250 258 249 240 247 248 239 235 246 247 246 244 250 255 261 257 252 255 251 248 234 235 243 239 234
159 193 169 145 244 276 268 278 296 270 333 334 334 350 332 317 312 307 308 309 300 286 273 259 253 265 261 254 251 254 249 245 252 256 249 248 254 257 251 252 253 252 241 238 231 236 244 243 242
163 154 119 147 213 271 284 265 249 269 290 322 340 325 314 314 311 311 311 311 299 284 279 276 259 253 256 255 250 261 256 251 249 249 248 252 254 250 246 254 255 256 243 231 225 237 240 242 251
158 160 157 165 181 192 276 272 228 211 227 267 287 288 290 296 297 302 312 312 306 312 307 295 285 279 273 264 259 262 259 254 247 245 248 248 251 248 242 243 247 250 239 229 229 238 240 244 261
189 185 164 177 228 203 229 270 263 197 228 265 299 308 303 294 293 304 315 322 329 323 320 312 301 284 272 264 261 261 261 259 256 255 257 252 249 246 240 240 242 248 236 223 225 237 241 242 257